Regional Weather Roundup
Issued by NWS Portland, ME

Home | Current Version | Previous Version | Text Only | Print | Product List | Glossary On
Versions: 1 2 3 4 5 6 7 8 9 10 11 12 13 14 15 16 17 18 19 20 21 22 23 24 25 26 27 28 29 30 31 32 33 34 35 36 37 38 39 40 41 42 43 44 45 46 47 48 49 50
000
ASUS41 KGYX 270610
RWRGYX
WEATHER ROUNDUP FOR MAINE AND NEW HAMPSHIRE
NATIONAL WEATHER SERVICE GRAY ME
100 AM EST TUE JAN 27 2015

MEZ002-005-006-010-012-015-018-020-021-024-026-027-029-270700-
MAINE

CITY           SKY/WX    TMP DP  RH WIND       PRES   REMARKS
PORTLAND       CLOUDY    16  -3  43 N17G31    29.96F WCI   0
6HR MIN TEMP:  16; 6HR MAX TEMP:  18;

SANFORD        CLOUDY    12  -2  52 N20G30    29.90F WCI  -6
BAR HARBOR     CLOUDY    10   3  72 N22G28    30.05F WCI  -9
WISCASSET      CLOUDY    14  -7  38 VRB7G21   30.01F
6HR MIN TEMP:  14; 6HR MAX TEMP:  16;

ROCKLAND       CLOUDY    16   9  73 NE24G35   29.98F WCI  -3
FRYEBURG       CLOUDY    14  -8  37 N8        30.00F
6HR MIN TEMP:  14; 6HR MAX TEMP:  16;

LEWISTONAUBURN CLOUDY    12  -6  44 NE18G24   30.00F WCI  -5
AUGUSTA        CLOUDY    10  -7  46 N20G30    30.04F WCI  -9
6HR MIN TEMP:  10; 6HR MAX TEMP:  12;

WATERVILLE     CLOUDY    10  -9  40 NE14G21   30.04F WCI  -5
BANGOR         CLOUDY     9  -5  53 N20G30    30.12F WCI -10
6HR MIN TEMP:   9; 6HR MAX TEMP:  12;

GREENVILLE       N/A      6 -13  41 VRB7      30.01F
6HR MIN TEMP:   5; 6HR MAX TEMP:   7;

MILLINOCKET    CLOUDY     7  -9  48 NE13G21   30.19F WCI  -9
6HR MIN TEMP:   6; 6HR MAX TEMP:   9;

HOULTON        MOCLDY     3  -8  60 N13       30.22F WCI -14
6HR MIN TEMP:  -3; 6HR MAX TEMP:   4;

PRESQUE ISLE   PTCLDY     1 -29  22 N10       30.28F WCI -14
6HR MIN TEMP:  -2; 6HR MAX TEMP:   3;

FRENCHVILLE    MOCLDY    -5 -12  72 NE7       30.28R
6HR MIN TEMP:  -6; 6HR MAX TEMP:   1;

CARIBOU        PTCLDY     0 -10  63 NE8       30.28F
6HR MIN TEMP:  -2; 6HR MAX TEMP:   1;

$$

NHZ002-005-008-009-011-012-014-270700-
NEW HAMPSHIRE

CITY           SKY/WX    TMP DP  RH WIND       PRES   REMARKS
ROCHESTER      LGT SNOW  15  -1  49 N16G22    29.88F WCI  -1
6HR MIN TEMP:  15; 6HR MAX TEMP:  17; 6HR PCP: TRACE;

NASHUA         LGT SNOW  14   8  77 N14G21    29.86F WCI  -1
MANCHESTER     LGT SNOW  15   5  64 N22G29    29.84F VSB 1   WCI  -3
6HR MIN TEMP:  15; 6HR MAX TEMP:  19; 6HR PCP: TRACE;

CONCORD        LGT SNOW  14   5  67 N10       29.91F WCI   1
6HR MIN TEMP:  14; 6HR MAX TEMP:  19; 6HR PCP:  0.01;

LACONIA        CLOUDY    12   0  57 NE15G23   29.90F WCI  -4
PLYMOUTH       CLOUDY    18  -5  35 CALM      29.93F
BERLIN         CLOUDY    12 -11  35 N8        29.97F
6HR MIN TEMP:  10; 6HR MAX TEMP:  14;

WHITEFIELD     CLOUDY    13 -11  33 E14G28    29.92F WCI  -2
6HR MIN TEMP:  13; 6HR MAX TEMP:  16;

JAFFREY        LGT SNOW  11   6  81 N13G20    29.78F VSB 1   WCI  -4
6HR MIN TEMP:  11; 6HR MAX TEMP:  16; 6HR PCP:  0.01;

KEENE          CLOUDY    14   7  73 N18       29.85F WCI  -3
LEBANON        CLOUDY    17   0  47 N9        29.93F
6HR MIN TEMP:  17; 6HR MAX TEMP:  20;

MT WASHINGTON  MOCLDY     1 -13  51 E33         N/A  WCI -25
6HR MIN TEMP:   1; 6HR MAX TEMP:  13;

$$

VTZ005-007-008-270700-
VERMONT

CITY           SKY/WX    TMP DP  RH WIND       PRES   REMARKS
ST JOHNSBURY     N/A     12  -1  56 MISG      29.95F
MONTPELIER     CLOUDY     8   1  73 CALM      29.96F
BURLINGTON     MOCLDY     6  -3  66 N10       30.03F WCI  -9
$$

MAZ007-012-024-CTZ003-RIZ002-NYZ038-NYZ072-270700-
SOUTHERN NEW ENGLAND AND NY

CITY           SKY/WX    TMP DP  RH WIND       PRES   REMARKS
BOSTON         HVY SNOW  17  14  88 N25G38    29.76F VSB 1/4 WCI  -1
WORCESTER      FOG       11   8  88 NE16G38   29.67F VSB 1/2 WCI  -6
NANTUCKET      LGT SNOW  33  31  92 NE45G70   29.41F FOG     WCI  17
PROVIDENCE     SNOW      19  15  84 N29G39    29.65F VSB 1/2 WCI   0
HARTFORD       LGT SNOW  18  13  80 N24G35    29.72F VSB 1   WCI   0
ALBANY         CLOUDY    17   2  51 N12       29.88F WCI   4
NEW YORK CITY  SNOW      25  22  88 N12       29.68F VSB 1/2 WCI  14
$$

ANZ081-ANZ082-ANZ150-NHZ014-MEZ023>029-270700-
COASTAL MARINE OBSERVATIONS

STATION/POSITION TIME  TEMP    WIND        PRES    WAVE
                       AIR SEA DIR/SP/G            HT/PER
                 (UTC) (F)     (DEG/KT/KT) (MB)    (FT/S)
MOUNT DESERT ROC 0600   24                 1012.6F
MATINICUS ROCK   0600           40/ 35/ 43 1012.9F
PORTLAND WX BUOY 0550   20 39   30/ 33/ 39 1012.5F   7/ 7
WELLS            0500   16 30   20/ 19/ 24 1013.3F
ISLE OF SHOALS   0600   19      20/ 41/ 49 1008.8F
JEFFREYS LEDGE   0521      44                N/A    14/ 8
CASHES LEDGE BUO 0550   29 45   50/ 35/ 43 1008.8F  15/ 8
$$

.............KEY..............
   WCI - WIND CHILL
   TC  - TEMPERATURE IN CELSIUS
   VSB - VISIBILITY IN MILES
   HX  - HEAT INDEX
   FAIR- INDICATES FEW OR NO CLOUDS BELOW 12,000 FT, WITH NO
         SIGNIFICANT WEATHER AND/OR OBSTRUCTIONS TO VISIBILITY.




USA.gov is the U.S. government's official web portal to all federal, state and local government web resources and services.